User: anonymous
Location: Unspecified
(0.0000°N, 0.0000°E)
Time: 05:40:52
(UTC+02:00)
Language:

ARIANE 5 R/B - Orbit

View from above orbital plane
View from above orbital plane
View from above satellite
View from above satellite

Ground track
Ground track

The orbit data is extracted from the following two-line orbital elements,

1 28886U 05041C   14293.27701613 -.00000128  00000-0 -12506-2 0  6297
2 28886 008.3292 009.9047 7182139 097.6794 354.0210 02.24315081 73933
Epoch (UTC): 20 October 2014 06:38:54
Eccentricity: 0.7182139
inclination: 8.3292°
perigee height: 568 km
apogee height: 35977 km
right ascension of ascending node: 9.9047°
argument of perigee: 97.6794°
revolutions per day: 2.24315081
mean anomaly at epoch: 354.0210°
orbit number at epoch: 7393

The dashed part of the orbit path shows where the satellite is in the earth's shadow,  

DLR